Fruitland, IA

11:35 AM CDT on July 23, 2016 (GMT -0500)
Muscatine Municipal

Weather History for KMUT - May, 2013

Change the Weather History Date:

Friday, May 31, 2013

  Actual Average Record
Temperature  
Mean Temperature 68 °F -  
Max Temperature 77 °F 77 °F 91 °F (1988)
Min Temperature 60 °F 55 °F 40 °F (1972)
Cooling Degree Days 4    
Growing Degree Days 18 (Base 50)    
Moisture  
Dew Point 60 °F    
Average Humidity 76    
Maximum Humidity 88    
Minimum Humidity 56    
Precipitation  
Precipitation 0.01 in - - ()
Sea Level Pressure  
Sea Level Pressure 29.73 in    
Wind  
Wind Speed 11 mph (South)    
Max Wind Speed 31 mph    
Max Gust Speed 40 mph    
Visibility 10 miles    
Events Rain    
Averages and records for this station are not official NWS values.
T = Trace of Precipitation, MM = Missing Value Source: NWS Daily Summary

Daily Weather History Graph

Daily Weather History Graph

Search for Another Location

Airport or City:

Trip Planner

Search our weather history database for the weather conditions in past years. The results will help you decide how hot, cold, wet, or windy it might be!

Date:

Astronomy

May. 31, 2013 Rise Set
Actual Time 5:33 AM CDT 8:31 PM CDT
Civil Twilight 5:00 AM CDT 9:04 PM CDT
Nautical Twilight 4:18 AM CDT 9:46 PM CDT
Astronomical Twilight 3:30 AM CDT 10:35 PM CDT
Moon 1:02 AM CDT (5/31) 12:52 PM CDT (5/31)
Length of Visible Light 16h 03m
Length of Day
14h 57m
Waning Gibbous, 51% of the Moon is Illuminated
May 31
Waning Gibbous
May 31
Last Quarter
Jun 8
New
Jun 16
First Quarter
Jun 23
Full

Hourly Weather History & Observations

Time (CDT) Temp. Dew Point Humidity Pressure Visibility Wind Dir Wind Speed Gust Speed Precip Events Conditions
12:15 AM 62.6 °F 57.2 °F 82% 29.77 in 10.0 mi South 10.4 mph - N/A   Clear
12:35 AM 62.6 °F 57.2 °F 82% 29.76 in 10.0 mi SSE 9.2 mph - N/A   Scattered Clouds
12:55 AM 62.6 °F 57.2 °F 82% 29.77 in 10.0 mi South 11.5 mph - N/A   Mostly Cloudy
1:15 AM 62.6 °F 57.2 °F 82% 29.77 in 10.0 mi South 10.4 mph - N/A   Mostly Cloudy
1:35 AM 62.6 °F 57.2 °F 82% 29.76 in 10.0 mi South 10.4 mph - N/A   Scattered Clouds
1:55 AM 62.6 °F 57.2 °F 82% 29.76 in 10.0 mi South 12.7 mph - N/A   Scattered Clouds
2:15 AM 62.6 °F 57.2 °F 82% 29.75 in 10.0 mi SSE 9.2 mph - N/A   Clear
2:35 AM 62.6 °F 57.2 °F 82% 29.76 in 10.0 mi South 9.2 mph - N/A   Clear
2:55 AM 62.6 °F 55.4 °F 77% 29.77 in 10.0 mi South 8.1 mph - N/A   Clear
3:15 AM 62.6 °F 55.4 °F 77% 29.77 in 10.0 mi South 6.9 mph - N/A   Scattered Clouds
3:35 AM 62.6 °F 57.2 °F 82% 29.77 in 10.0 mi South 6.9 mph - N/A   Mostly Cloudy
3:55 AM 62.6 °F 57.2 °F 82% 29.77 in 10.0 mi South 8.1 mph - N/A   Mostly Cloudy
4:15 AM 60.8 °F 57.2 °F 88% 29.77 in 10.0 mi SSE 6.9 mph - N/A   Scattered Clouds
4:35 AM 60.8 °F 57.2 °F 88% 29.77 in 10.0 mi South 6.9 mph - N/A   Scattered Clouds
4:55 AM 60.8 °F 57.2 °F 88% 29.77 in 10.0 mi South 8.1 mph - N/A   Scattered Clouds
5:15 AM 60.8 °F 55.4 °F 82% 29.76 in 10.0 mi SSE 6.9 mph - N/A   Scattered Clouds
5:35 AM 62.6 °F 57.2 °F 82% 29.75 in 10.0 mi SSE 6.9 mph - N/A   Scattered Clouds
5:55 AM 62.6 °F 57.2 °F 82% 29.75 in 10.0 mi SSE 5.8 mph - N/A   Scattered Clouds
6:15 AM 62.6 °F 57.2 °F 82% 29.74 in 10.0 mi SSE 6.9 mph - N/A   Scattered Clouds
6:35 AM 62.6 °F 57.2 °F 82% 29.75 in 10.0 mi SSE 5.8 mph - N/A   Mostly Cloudy
6:55 AM 62.6 °F 57.2 °F 82% 29.75 in 10.0 mi SSE 8.1 mph - N/A   Mostly Cloudy
7:15 AM 64.4 °F 59.0 °F 83% 29.76 in 10.0 mi SSE 9.2 mph - N/A   Mostly Cloudy
7:35 AM 64.4 °F 59.0 °F 83% 29.77 in 10.0 mi South 12.7 mph - N/A   Overcast
7:55 AM 66.2 °F 60.8 °F 83% 29.76 in 10.0 mi South 13.8 mph 17.3 mph N/A   Scattered Clouds
8:15 AM 66.2 °F 60.8 °F 83% 29.78 in 10.0 mi South 13.8 mph - N/A   Scattered Clouds
8:35 AM 66.2 °F 60.8 °F 83% 29.78 in 10.0 mi South 11.5 mph 17.3 mph N/A   Scattered Clouds
8:55 AM 66.2 °F 60.8 °F 83% 29.79 in 10.0 mi South 10.4 mph - N/A   Clear
9:15 AM 66.2 °F 60.8 °F 83% 29.78 in 10.0 mi South 26.5 mph - N/A Rain Light Rain
9:35 AM 64.4 °F 60.8 °F 88% 29.67 in 7.0 mi SSE 31.1 mph 40.3 mph N/A Rain Light Rain
9:55 AM 64.4 °F 57.2 °F 77% 29.72 in 10.0 mi South 16.1 mph 31.1 mph 0.01 in Rain Light Rain
10:15 AM 66.2 °F 57.2 °F 73% 29.73 in 10.0 mi South 10.4 mph - N/A   Clear
10:35 AM 68.0 °F 55.4 °F 64% 29.73 in 10.0 mi South 13.8 mph 23.0 mph N/A   Clear
10:55 AM 66.2 °F 55.4 °F 68% 29.72 in 10.0 mi SSE 17.3 mph 23.0 mph N/A   Clear
11:15 AM 68.0 °F 55.4 °F 64% 29.73 in 10.0 mi SSE 12.7 mph - N/A   Clear
11:35 AM 69.8 °F 55.4 °F 60% 29.74 in 10.0 mi South 11.5 mph 16.1 mph N/A   Clear
11:55 AM 69.8 °F 53.6 °F 56% 29.73 in 10.0 mi SSE 15.0 mph 21.9 mph N/A   Clear
12:15 PM 69.8 °F 55.4 °F 60% 29.74 in 10.0 mi South 21.9 mph 28.8 mph N/A   Clear
12:35 PM 68.0 °F 55.4 °F 64% 29.69 in 10.0 mi SE 25.3 mph 31.1 mph N/A Rain Light Rain
12:55 PM 68.0 °F 55.4 °F 64% 29.68 in 10.0 mi SSE 26.5 mph 33.4 mph N/A   Clear
1:15 PM 68.0 °F 57.2 °F 68% 29.70 in 10.0 mi SSE 26.5 mph 36.8 mph N/A   Clear
1:35 PM 66.2 °F 59.0 °F 78% 29.71 in 10.0 mi SSE 29.9 mph 34.5 mph N/A Rain Light Rain
1:55 PM 68.0 °F 60.8 °F 78% 29.72 in 10.0 mi SSE 19.6 mph 28.8 mph N/A Rain Light Rain
2:15 PM 71.6 °F 62.6 °F 73% 29.73 in 10.0 mi SSE 18.4 mph 26.5 mph N/A   Clear
2:35 PM 71.6 °F 60.8 °F 69% 29.75 in 10.0 mi South 19.6 mph 26.5 mph N/A   Clear
2:55 PM 73.4 °F 62.6 °F 69% 29.74 in 10.0 mi South 19.6 mph 26.5 mph N/A   Clear
3:15 PM 73.4 °F 62.6 °F 69% 29.74 in 10.0 mi South 16.1 mph 23.0 mph N/A   Clear
3:35 PM 73.4 °F 62.6 °F 69% 29.74 in 10.0 mi South 18.4 mph - N/A   Clear
3:55 PM 75.2 °F 62.6 °F 65% 29.73 in 10.0 mi South 15.0 mph - N/A   Scattered Clouds
4:15 PM 75.2 °F 64.4 °F 69% 29.72 in 10.0 mi South 15.0 mph 19.6 mph N/A   Scattered Clouds
4:35 PM 77.0 °F 64.4 °F 65% 29.73 in 10.0 mi SSW 15.0 mph 19.6 mph N/A   Scattered Clouds
4:55 PM 75.2 °F 62.6 °F 65% 29.71 in 10.0 mi South 13.8 mph 21.9 mph N/A   Scattered Clouds
5:15 PM 75.2 °F 62.6 °F 65% 29.71 in 10.0 mi SSW 11.5 mph - N/A   Clear
5:35 PM 73.4 °F 62.6 °F 69% 29.72 in 10.0 mi SSW 10.4 mph - N/A   Scattered Clouds
5:55 PM 73.4 °F 62.6 °F 69% 29.71 in 10.0 mi SSW 8.1 mph - N/A   Mostly Cloudy
6:15 PM 73.4 °F 62.6 °F 69% 29.69 in 10.0 mi South 8.1 mph - N/A   Scattered Clouds
6:35 PM 73.4 °F 64.4 °F 73% 29.69 in 10.0 mi South 10.4 mph - N/A   Clear
6:55 PM 71.6 °F 64.4 °F 78% 29.70 in 10.0 mi South 10.4 mph - N/A   Clear
7:15 PM 71.6 °F 62.6 °F 73% 29.68 in 10.0 mi SSE 9.2 mph - N/A   Clear
7:35 PM 71.6 °F 64.4 °F 78% 29.69 in 10.0 mi SSE 9.2 mph - N/A   Clear
7:55 PM 71.6 °F 62.6 °F 73% 29.69 in 10.0 mi South 9.2 mph - N/A   Clear
8:15 PM 71.6 °F 62.6 °F 73% 29.69 in 10.0 mi SSE 5.8 mph - N/A   Clear
8:35 PM 69.8 °F 62.6 °F 78% 29.69 in 10.0 mi SSE 4.6 mph - N/A   Clear
8:55 PM 69.8 °F 62.6 °F 78% 29.69 in 10.0 mi SSE 3.5 mph - N/A   Clear
9:15 PM 69.8 °F 62.6 °F 78% 29.70 in 10.0 mi South 4.6 mph - N/A   Clear
9:35 PM 69.8 °F 62.6 °F 78% 29.71 in 10.0 mi Calm Calm - N/A   Scattered Clouds
9:55 PM 69.8 °F 62.6 °F 78% 29.70 in 10.0 mi SSE 5.8 mph - N/A   Scattered Clouds
10:15 PM 69.8 °F 62.6 °F 78% 29.69 in 10.0 mi SSE 8.1 mph - N/A   Clear
10:35 PM 69.8 °F 62.6 °F 78% 29.69 in 10.0 mi SSW 5.8 mph - N/A   Clear
10:55 PM 68.0 °F 62.6 °F 83% 29.69 in 10.0 mi SSW 3.5 mph - N/A   Clear
11:15 PM 66.2 °F 62.6 °F 88% 29.71 in 10.0 mi SSW 3.5 mph - N/A   Clear
11:35 PM 66.2 °F 62.6 °F 88% 29.70 in 10.0 mi SSW 4.6 mph - N/A   Scattered Clouds
11:55 PM 68.0 °F 62.6 °F 83% 29.68 in 10.0 mi WSW 5.8 mph - N/A   Scattered Clouds